Location: Br�znic
(45.9167°N, 22.6500°E)
Time: 14:54:21
(UTC+00:00)

Cosmos 2181 Rocket - Pass Details

Date: 03 March 2021
Orbit: 951 x 1015 km, 82.9° (Epoch: 10 April)

Event Time Altitude Azimuth Distance (km) Brightness Sun altitude
Rises 16:35:35 0° 349° (N) 3,764 7.1 -3.7°
Reaches altitude 10° 16:38:09 10° 348° (NNW) 2,807 6.5 -4.2°
Maximum altitude 16:44:35 74° 265° (W) 1,048 4.4 -5.3°
Drops below altitude 10° 16:50:55 10° 182° (S) 2,758 6.4 -6.4°
Sets 16:53:25 0° 180° (S) 3,695 7.1 -6.8°
